This is the latest recevied weather packets stored in our database for station/object WB8ZGM-13. If no packets are shown the sender has not sent any weather packets the latest 10 day(s).
| Time | Temp. | Humidity | Pressure | Rain* | Wind** | Luminosity | Snow |
|---|---|---|---|---|---|---|---|
| 1777432944 | 18.33° C | 99% | 996.5 hPa | 0 mm | - | - | - |
| 1777432013 | 18.89° C | 99% | 997.1 hPa | 0 mm | - | - | - |
| 1777431084 | 18.89° C | 99% | 996.7 hPa | 0 mm | - | - | - |
| 1777430153 | 19.44° C | 99% | 996.2 hPa | 0.25 mm | - | - | - |
| 1777429223 | 19.44° C | 99% | 995.6 hPa | 1.27 mm | - | - | - |
| 1777428323 | 19.44° C | 99% | 994.4 hPa | 2.29 mm | - | - | - |
| 1777427393 | 19.44° C | 99% | 998.3 hPa | 3.3 mm | - | - | - |
| 1777426493 | 20° C | 99% | 998.4 hPa | 4.06 mm | - | - | - |
| 1777425563 | 20° C | 99% | 998.1 hPa | 4.06 mm | - | - | - |
| 1777424663 | 20° C | 99% | 998.3 hPa | 2.79 mm | - | - | - |
| 1777423733 | 20.56° C | 99% | 998.4 hPa | 2.03 mm | - | - | - |
| 1777422803 | 20.56° C | 99% | 998.1 hPa | 0.76 mm | - | - | - |
| 1777421873 | 21.11° C | 96% | 998 hPa | 0 mm | - | - | - |
| 1777420943 | 21.67° C | 94% | 998.3 hPa | 0 mm | - | - | - |
| 1777420043 | 22.22° C | 91% | 998.3 hPa | 0 mm | - | - | - |
| 1777419143 | 22.78° C | 91% | 998.7 hPa | 0 mm | - | - | - |
| 1777418213 | 22.78° C | 91% | 997.6 hPa | 0 mm | - | - | - |
| 1777417283 | 22.78° C | 90% | 996.4 hPa | 0 mm | - | - | - |
| 1777416353 | 22.78° C | 90% | 996.6 hPa | 0 mm | - | - | - |
| 1777415423 | 23.33° C | 89% | 996.4 hPa | 0 mm | - | - | - |
| 1777414523 | 23.89° C | 87% | 995 hPa | 0 mm | - | - | - |
| 1777413593 | 24.44° C | 86% | 995.4 hPa | 0 mm | - | - | - |
| 1777412663 | 24.44° C | 86% | 996.2 hPa | 0 mm | - | - | - |
| 1777411763 | 25° C | 83% | 996.1 hPa | 0 mm | - | - | - |
| 1777410833 | 25.56° C | 83% | 996 hPa | 0 mm | - | - | - |
* Rain latest hour (hover to see other rain measurements)
** Current wind speed in m/s (hover to see current wind gust speed)